Location: *
(43.4667°N, 11.6833°E)
Time: 16:07:31
(UTC+00:00)

ATLAS 3B R/B - Pass Details

Date: 19 July 2019
Orbit: 1016 x 1179 km, 63.7° (Epoch: 11 August)

Event Time Altitude Azimuth Distance (km) Brightness Sun altitude
Rises 23:14:09 0° 325° (NW) 3,763 6.4 -25.8°
Reaches altitude 10° 23:17:13 10° 338° (NNW) 2,817 5.8 -25.8°
Maximum altitude 23:22:43 27° 35° (NE) 1,882 4.5 -25.8°
Drops below altitude 10° 23:28:18 10° 91° (E) 2,871 5.0 -25.7°
Sets 23:31:27 0° 103° (ESE) 3,849 5.5 -25.7°
